BAW903 EDDF-EGLL

Flight info

Callsign BAW903
Flight time 1h 8m
Altitude 38000
Route OBOKA2E OBOKA Z29 TORNU DCT ABNED L980 LOGAN
Aircraft A320/M-SDE3FGHIRWY/LB1

Departure

Time 2026-04-17 09:38
Airport Frankfurt Main Airport (EDDF)

Arrival

Time 2026-04-17 10:47
Airport London Heathrow Airport (EGLL)
Time Latitude Longitude Altitude Speed Heading
2026-04-17 09:16 50.04877 8.58972 365 ft 0 kts 340°
2026-04-17 09:29 50.04873 8.58974 365 ft 3 kts 340°
2026-04-17 09:29 50.04852 8.58986 368 ft 3 kts 340°
2026-04-17 09:29 50.04830 8.58999 366 ft 3 kts 340°
2026-04-17 09:30 50.04809 8.59011 371 ft 3 kts 340°
2026-04-17 09:30 50.04794 8.59019 368 ft 1 kts 340°
2026-04-17 09:32 50.04797 8.59016 368 ft 4 kts 332°
2026-04-17 09:33 50.04784 8.58961 368 ft 8 kts 223°
2026-04-17 09:33 50.04752 8.58874 371 ft 11 kts 250°
2026-04-17 09:33 50.04708 8.58768 369 ft 12 kts 199°
2026-04-17 09:33 50.04635 8.58756 370 ft 0 kts 186°
2026-04-17 09:37 50.04630 8.58755 370 ft 5 kts 188°
2026-04-17 09:37 50.04565 8.58693 371 ft 15 kts 218°
2026-04-17 09:37 50.04483 8.58572 370 ft 18 kts 241°
2026-04-17 09:37 50.04426 8.58338 372 ft 41 kts 249°
2026-04-17 09:38 50.04244 8.57572 363 ft 106 kts 249°
2026-04-17 09:38 50.03923 8.56231 360 ft 156 kts 250°
2026-04-17 09:38 50.03517 8.54546 723 ft 169 kts 249°
2026-04-17 09:38 50.03109 8.52829 1367 ft 170 kts 249°
2026-04-17 09:39 50.02680 8.51054 1799 ft 185 kts 246°
2026-04-17 09:39 50.01914 8.49336 2141 ft 201 kts 221°
2026-04-17 09:39 50.00706 8.48218 2774 ft 205 kts 197°
2026-04-17 09:39 49.99307 8.47811 3553 ft 205 kts 188°
2026-04-17 09:40 49.97895 8.47499 4295 ft 206 kts 188°
2026-04-17 09:40 49.96463 8.47180 5049 ft 209 kts 189°
2026-04-17 09:40 49.95019 8.46601 5569 ft 224 kts 197°
2026-04-17 09:40 49.93461 8.45880 6068 ft 240 kts 198°
2026-04-17 09:41 49.91943 8.44738 6839 ft 245 kts 215°
2026-04-17 09:41 49.90697 8.42906 7643 ft 250 kts 233°
2026-04-17 09:41 49.89767 8.40601 8456 ft 254 kts 239°
2026-04-17 09:41 49.88973 8.38146 9265 ft 258 kts 252°
2026-04-17 09:42 49.88621 8.35378 9875 ft 271 kts 268°
2026-04-17 09:42 49.88737 8.32389 10342 ft 285 kts 276°
2026-04-17 09:42 49.88937 8.29202 10602 ft 308 kts 279°
2026-04-17 09:42 49.89568 8.25947 10956 ft 323 kts 296°
2026-04-17 09:43 49.90776 8.22992 11595 ft 328 kts 307°
2026-04-17 09:43 49.92139 8.20137 12326 ft 330 kts 306°
2026-04-17 09:43 49.93515 8.17253 13047 ft 334 kts 308°
2026-04-17 09:43 49.95122 8.14625 13766 ft 338 kts 319°
2026-04-17 09:44 49.96920 8.12249 14438 ft 341 kts 319°
2026-04-17 09:44 49.98729 8.09850 15068 ft 343 kts 319°
2026-04-17 09:44 50.00548 8.07427 15697 ft 346 kts 319°
2026-04-17 09:44 50.02378 8.04977 16318 ft 349 kts 319°
2026-04-17 09:45 50.04200 8.02531 16927 ft 351 kts 318°
2026-04-17 09:45 50.06058 8.00034 17541 ft 354 kts 318°
2026-04-17 09:45 50.07952 7.97490 18152 ft 357 kts 318°
2026-04-17 09:45 50.09841 7.94952 18757 ft 360 kts 318°
2026-04-17 09:46 50.11743 7.92394 19322 ft 362 kts 318°
2026-04-17 09:46 50.13005 7.90692 19690 ft 364 kts 318°
2026-04-17 09:46 50.14931 7.88095 20275 ft 367 kts 318°
2026-04-17 09:46 50.17492 7.84637 21073 ft 369 kts 318°
2026-04-17 09:47 50.19436 7.82005 21628 ft 371 kts 318°
2026-04-17 09:47 50.21395 7.79351 22123 ft 375 kts 318°
2026-04-17 09:47 50.23382 7.76662 22620 ft 379 kts 318°
2026-04-17 09:47 50.25469 7.74126 23159 ft 383 kts 326°
2026-04-17 09:48 50.27034 7.72739 23512 ft 386 kts 333°
2026-04-17 09:48 50.29506 7.71038 24003 ft 389 kts 335°
2026-04-17 09:48 50.31991 7.69348 24461 ft 391 kts 335°
2026-04-17 09:48 50.34495 7.67638 24929 ft 393 kts 335°
2026-04-17 09:49 50.37008 7.65919 25361 ft 395 kts 334°
2026-04-17 09:49 50.39521 7.64196 25796 ft 397 kts 334°
2026-04-17 09:49 50.42052 7.62458 26258 ft 398 kts 334°
2026-04-17 09:49 50.44598 7.60710 26695 ft 399 kts 334°
2026-04-17 09:50 50.47112 7.58982 27110 ft 401 kts 334°
2026-04-17 09:50 50.49675 7.57218 27508 ft 403 kts 334°
2026-04-17 09:50 50.52238 7.55446 27891 ft 405 kts 334°
2026-04-17 09:50 50.54820 7.53653 28292 ft 406 kts 333°
2026-04-17 09:51 50.57287 7.51479 28677 ft 406 kts 325°
2026-04-17 09:51 50.59658 7.49042 29064 ft 408 kts 325°
2026-04-17 09:51 50.62044 7.46593 29443 ft 410 kts 325°
2026-04-17 09:51 50.64441 7.44134 29824 ft 412 kts 325°
2026-04-17 09:52 50.66851 7.41657 30225 ft 414 kts 325°
2026-04-17 09:52 50.69267 7.39175 30559 ft 416 kts 325°
2026-04-17 09:52 50.71671 7.36631 30884 ft 416 kts 321°
2026-04-17 09:52 50.73820 7.33598 31201 ft 416 kts 311°
2026-04-17 09:53 50.75610 7.30031 31612 ft 413 kts 302°
2026-04-17 09:53 50.77017 7.26087 32077 ft 411 kts 297°
2026-04-17 09:53 50.78317 7.22085 32567 ft 409 kts 297°
2026-04-17 09:53 50.79617 7.18089 33031 ft 407 kts 297°
2026-04-17 09:54 50.80908 7.14124 33503 ft 405 kts 297°
2026-04-17 09:54 50.82191 7.10178 33976 ft 403 kts 297°
2026-04-17 09:54 50.83463 7.06252 34416 ft 401 kts 297°
2026-04-17 09:54 50.84725 7.02339 34766 ft 400 kts 296°
2026-04-17 09:55 50.85986 6.98414 35087 ft 399 kts 296°
2026-04-17 09:55 50.87248 6.94490 35409 ft 399 kts 296°
2026-04-17 09:55 50.88507 6.90579 35722 ft 398 kts 296°
2026-04-17 09:55 50.89761 6.86679 36032 ft 398 kts 296°
2026-04-17 09:56 50.91017 6.82769 36343 ft 397 kts 296°
2026-04-17 09:56 50.92271 6.78870 36639 ft 397 kts 296°
2026-04-17 09:56 50.93522 6.74978 36930 ft 396 kts 296°
2026-04-17 09:56 50.94767 6.71089 37205 ft 396 kts 296°
2026-04-17 09:57 50.95994 6.67242 37480 ft 395 kts 296°
2026-04-17 09:57 50.97248 6.63299 37760 ft 395 kts 296°
2026-04-17 09:57 50.98481 6.59419 38015 ft 395 kts 296°
2026-04-17 09:57 50.99721 6.55524 38199 ft 395 kts 296°
2026-04-17 09:58 51.02186 6.47750 38239 ft 397 kts 296°
2026-04-17 09:58 51.04657 6.39893 38241 ft 398 kts 296°
2026-04-17 09:59 51.07132 6.32027 38240 ft 397 kts 296°
2026-04-17 09:59 51.09602 6.24161 38241 ft 397 kts 296°
2026-04-17 10:00 51.12063 6.16278 38238 ft 398 kts 296°
2026-04-17 10:00 51.14293 6.08237 38239 ft 397 kts 286°
2026-04-17 10:01 51.15690 5.99716 38241 ft 398 kts 285°
2026-04-17 10:01 51.17073 5.91173 38241 ft 398 kts 285°
2026-04-17 10:02 51.18508 5.82767 38237 ft 398 kts 291°
2026-04-17 10:02 51.20652 5.74626 38252 ft 398 kts 292°
2026-04-17 10:03 51.22786 5.66546 38247 ft 397 kts 292°
2026-04-17 10:03 51.24917 5.58420 38241 ft 397 kts 292°
2026-04-17 10:04 51.27041 5.50299 38241 ft 397 kts 292°
2026-04-17 10:04 51.29161 5.42163 38240 ft 396 kts 292°
2026-04-17 10:05 51.31281 5.34030 38235 ft 396 kts 292°
2026-04-17 10:05 51.33396 5.25903 38253 ft 396 kts 292°
2026-04-17 10:06 51.35495 5.17746 38248 ft 396 kts 292°
2026-04-17 10:06 51.37591 5.09588 38245 ft 396 kts 292°
2026-04-17 10:07 51.39686 5.01434 38246 ft 396 kts 292°
2026-04-17 10:07 51.41773 4.93262 38248 ft 396 kts 292°
2026-04-17 10:08 51.43852 4.85087 38249 ft 396 kts 292°
2026-04-17 10:08 51.45918 4.76954 38254 ft 396 kts 291°
2026-04-17 10:09 51.47984 4.68765 38251 ft 396 kts 291°
2026-04-17 10:09 51.50039 4.60577 38242 ft 395 kts 291°
2026-04-17 10:10 51.52087 4.52404 38238 ft 395 kts 291°
2026-04-17 10:11 51.55161 4.40123 38233 ft 394 kts 291°
2026-04-17 10:11 51.57198 4.31939 38230 ft 394 kts 291°
2026-04-17 10:12 51.59229 4.23740 38227 ft 394 kts 291°
2026-04-17 10:12 51.61240 4.15580 38227 ft 395 kts 291°
2026-04-17 10:13 51.63268 4.07313 38221 ft 394 kts 291°
2026-04-17 10:13 51.65276 3.99101 38216 ft 394 kts 291°
2026-04-17 10:14 51.67281 3.90886 38213 ft 394 kts 291°
2026-04-17 10:14 51.69266 3.82702 38217 ft 394 kts 290°
2026-04-17 10:15 51.71257 3.74481 38215 ft 394 kts 290°
2026-04-17 10:15 51.73247 3.66251 38219 ft 394 kts 290°
2026-04-17 10:16 51.75227 3.58011 38219 ft 394 kts 290°
2026-04-17 10:16 51.77197 3.49768 38234 ft 393 kts 290°
2026-04-17 10:17 51.79162 3.41529 38229 ft 393 kts 290°
2026-04-17 10:17 51.81123 3.33286 38232 ft 393 kts 290°
2026-04-17 10:18 51.83079 3.25039 38228 ft 393 kts 289°
2026-04-17 10:18 51.84539 3.16578 38225 ft 391 kts 275°
2026-04-17 10:19 51.84323 3.07808 38223 ft 391 kts 265°
2026-04-17 10:19 51.83753 2.99049 37932 ft 392 kts 265°
2026-04-17 10:19 51.83467 2.94677 37656 ft 392 kts 265°
2026-04-17 10:20 51.83178 2.90297 37387 ft 391 kts 264°
2026-04-17 10:20 51.82886 2.85911 37118 ft 391 kts 264°
2026-04-17 10:20 51.82593 2.81548 36850 ft 390 kts 264°
2026-04-17 10:20 51.82298 2.77189 36587 ft 391 kts 264°
2026-04-17 10:21 51.82001 2.72885 36330 ft 390 kts 264°
2026-04-17 10:21 51.81702 2.68535 36066 ft 388 kts 264°
2026-04-17 10:21 51.81406 2.64219 35823 ft 386 kts 264°
2026-04-17 10:21 51.81114 2.59928 35515 ft 381 kts 264°
2026-04-17 10:22 51.80823 2.55684 35085 ft 378 kts 264°
2026-04-17 10:22 51.80530 2.51466 34621 ft 376 kts 264°
2026-04-17 10:22 51.80240 2.47294 34173 ft 374 kts 264°
2026-04-17 10:22 51.79948 2.43133 33699 ft 371 kts 264°
2026-04-17 10:23 51.79659 2.39022 33242 ft 367 kts 263°
2026-04-17 10:23 51.79375 2.34933 32797 ft 364 kts 263°
2026-04-17 10:23 51.79090 2.30894 32358 ft 361 kts 263°
2026-04-17 10:23 51.78804 2.26898 31929 ft 358 kts 263°
2026-04-17 10:24 51.78511 2.22905 31505 ft 355 kts 263°
2026-04-17 10:24 51.78237 2.18967 31085 ft 353 kts 263°
2026-04-17 10:24 51.77995 2.15036 30680 ft 351 kts 263°
2026-04-17 10:24 51.77773 2.11166 30282 ft 350 kts 264°
2026-04-17 10:25 51.77556 2.07244 29839 ft 348 kts 264°
2026-04-17 10:25 51.77342 2.03386 29456 ft 345 kts 263°
2026-04-17 10:25 51.77120 1.99530 29067 ft 343 kts 263°
2026-04-17 10:25 51.76896 1.95719 28707 ft 340 kts 263°
2026-04-17 10:26 51.76667 1.91919 28336 ft 338 kts 263°
2026-04-17 10:26 51.76438 1.88165 27958 ft 336 kts 263°
2026-04-17 10:26 51.76210 1.84425 27582 ft 333 kts 263°
2026-04-17 10:26 51.75982 1.80716 27221 ft 330 kts 262°
2026-04-17 10:27 51.75754 1.77035 26846 ft 328 kts 262°
2026-04-17 10:27 51.75527 1.73396 26477 ft 325 kts 262°
2026-04-17 10:27 51.75300 1.69813 26115 ft 323 kts 262°
2026-04-17 10:27 51.75073 1.66172 25722 ft 321 kts 262°
2026-04-17 10:28 51.74850 1.62596 25348 ft 319 kts 262°
2026-04-17 10:28 51.74629 1.59093 24926 ft 319 kts 262°
2026-04-17 10:28 51.74399 1.55450 24424 ft 324 kts 262°
2026-04-17 10:28 51.74170 1.51877 23936 ft 325 kts 262°
2026-04-17 10:29 51.73933 1.48238 23397 ft 327 kts 262°
2026-04-17 10:29 51.73695 1.44585 22842 ft 328 kts 262°
2026-04-17 10:29 51.73456 1.40917 22282 ft 329 kts 262°
2026-04-17 10:29 51.73217 1.37242 21732 ft 329 kts 262°
2026-04-17 10:30 51.72981 1.33584 21349 ft 325 kts 262°
2026-04-17 10:30 51.72748 1.29960 20921 ft 323 kts 262°
2026-04-17 10:30 51.72513 1.26361 20442 ft 323 kts 262°
2026-04-17 10:30 51.72277 1.22802 19964 ft 323 kts 262°
2026-04-17 10:31 51.72038 1.19212 19480 ft 323 kts 262°
2026-04-17 10:31 51.71793 1.15608 18989 ft 323 kts 262°
2026-04-17 10:31 51.71549 1.12009 18506 ft 324 kts 262°
2026-04-17 10:31 51.71303 1.08395 17970 ft 324 kts 262°
2026-04-17 10:32 51.71058 1.04788 17479 ft 322 kts 262°
2026-04-17 10:32 51.70812 1.01206 17002 ft 322 kts 262°
2026-04-17 10:32 51.70566 0.97650 16632 ft 317 kts 261°
2026-04-17 10:32 51.70321 0.94119 16181 ft 316 kts 261°
2026-04-17 10:33 51.70078 0.90617 15761 ft 314 kts 261°
2026-04-17 10:33 51.69837 0.87131 15335 ft 312 kts 261°
2026-04-17 10:33 51.69596 0.83672 14919 ft 310 kts 261°
2026-04-17 10:33 51.69353 0.80221 14506 ft 308 kts 261°
2026-04-17 10:34 51.69111 0.76799 14082 ft 306 kts 261°
2026-04-17 10:34 51.68799 0.73419 13659 ft 302 kts 251°
2026-04-17 10:34 51.67972 0.70342 13211 ft 299 kts 242°
2026-04-17 10:34 51.67016 0.67378 12759 ft 298 kts 242°
2026-04-17 10:35 51.66045 0.64428 12317 ft 297 kts 242°
2026-04-17 10:35 51.65400 0.62476 12038 ft 296 kts 242°
2026-04-17 10:35 51.64432 0.59563 11621 ft 295 kts 242°
2026-04-17 10:35 51.63144 0.55718 11072 ft 293 kts 242°
2026-04-17 10:36 51.62175 0.52845 10780 ft 288 kts 241°
2026-04-17 10:36 51.61537 0.50958 10701 ft 281 kts 241°
2026-04-17 10:36 51.60620 0.48250 10547 ft 272 kts 241°
2026-04-17 10:36 51.59714 0.45589 10274 ft 269 kts 241°
2026-04-17 10:37 51.58813 0.42963 9935 ft 268 kts 241°
2026-04-17 10:37 51.57914 0.40349 9578 ft 267 kts 241°
2026-04-17 10:37 51.57019 0.37749 9230 ft 265 kts 241°
2026-04-17 10:37 51.56130 0.35158 8893 ft 264 kts 241°
2026-04-17 10:38 51.55248 0.32576 8556 ft 263 kts 241°
2026-04-17 10:38 51.54373 0.30011 8228 ft 261 kts 241°
2026-04-17 10:38 51.53512 0.27490 7888 ft 261 kts 242°
2026-04-17 10:38 51.52629 0.24916 7547 ft 259 kts 241°
2026-04-17 10:39 51.51761 0.22378 7218 ft 259 kts 242°
2026-04-17 10:39 51.50895 0.19858 6909 ft 257 kts 241°
2026-04-17 10:39 51.50044 0.17380 6591 ft 256 kts 241°
2026-04-17 10:39 51.49175 0.14856 6266 ft 254 kts 241°
2026-04-17 10:40 51.48339 0.12410 5957 ft 253 kts 241°
2026-04-17 10:40 51.47497 0.09942 5637 ft 251 kts 241°
2026-04-17 10:40 51.46721 0.07449 5323 ft 249 kts 251°
2026-04-17 10:40 51.46503 0.04697 5016 ft 250 kts 267°
2026-04-17 10:41 51.46515 0.01914 4757 ft 247 kts 268°
2026-04-17 10:41 51.46528 -0.00782 4603 ft 237 kts 267°
2026-04-17 10:41 51.46532 -0.03379 4451 ft 228 kts 266°
2026-04-17 10:41 51.46533 -0.05902 4181 ft 225 kts 266°
2026-04-17 10:42 51.46534 -0.08392 4004 ft 224 kts 266°
2026-04-17 10:42 51.46534 -0.10909 3966 ft 227 kts 266°
2026-04-17 10:42 51.46534 -0.13433 3760 ft 226 kts 266°
2026-04-17 10:42 51.46534 -0.15943 3484 ft 224 kts 266°
2026-04-17 10:43 51.46533 -0.18429 3185 ft 223 kts 266°
2026-04-17 10:43 51.46531 -0.20923 2887 ft 223 kts 266°
2026-04-17 10:43 51.46530 -0.23374 2598 ft 214 kts 266°
2026-04-17 10:43 51.46530 -0.25637 2319 ft 193 kts 265°
2026-04-17 10:44 51.46528 -0.27667 2100 ft 178 kts 265°
2026-04-17 10:44 51.46525 -0.29563 1849 ft 164 kts 265°
2026-04-17 10:44 51.46521 -0.31385 1607 ft 163 kts 264°
2026-04-17 10:44 51.46520 -0.33127 1352 ft 148 kts 264°
2026-04-17 10:45 51.46515 -0.34738 1169 ft 143 kts 264°
2026-04-17 10:45 51.46513 -0.36299 970 ft 135 kts 263°
2026-04-17 10:45 51.46509 -0.37795 826 ft 134 kts 264°
2026-04-17 10:45 51.46504 -0.39287 656 ft 134 kts 262°
2026-04-17 10:46 51.46500 -0.40787 442 ft 137 kts 261°
2026-04-17 10:46 51.46497 -0.42313 275 ft 135 kts 261°
2026-04-17 10:46 51.46493 -0.43816 102 ft 133 kts 263°
2026-04-17 10:46 51.46486 -0.45072 88 ft 88 kts 271°
2026-04-17 10:47 51.46489 -0.45726 85 ft 22 kts 284°
2026-04-17 10:47 51.46587 -0.45888 80 ft 12 kts 324°
2026-04-17 10:47 51.46610 -0.45912 80 ft 0 kts 328°
2026-04-17 10:49 51.46613 -0.45915 81 ft 3 kts 328°
2026-04-17 10:49 51.46660 -0.46004 82 ft 17 kts 281°
2026-04-17 10:49 51.46660 -0.46210 85 ft 19 kts 267°
2026-04-17 10:49 51.46660 -0.46439 92 ft 23 kts 270°
2026-04-17 10:50 51.46659 -0.46699 91 ft 24 kts 270°
2026-04-17 10:50 51.46658 -0.46993 86 ft 28 kts 269°
2026-04-17 10:50 51.46656 -0.47313 84 ft 30 kts 269°
2026-04-17 10:50 51.46655 -0.47633 81 ft 28 kts 270°
2026-04-17 10:51 51.46654 -0.47933 83 ft 27 kts 269°
2026-04-17 10:51 51.46654 -0.48232 87 ft 26 kts 269°
2026-04-17 10:51 51.46671 -0.48452 88 ft 18 kts 317°
2026-04-17 10:51 51.46789 -0.48471 85 ft 18 kts 359°
2026-04-17 10:52 51.46937 -0.48472 86 ft 23 kts 359°
2026-04-17 10:52 51.47072 -0.48477 85 ft 12 kts 350°
2026-04-17 10:52 51.47087 -0.48575 85 ft 6 kts 269°
2026-04-17 10:52 51.47087 -0.48579 85 ft 0 kts 269°